Dansville, NY

4:41 PM EST on February 24, 2017 (GMT -0500)
Dansville Municipal

Weather History for KDSV - September, 2013

Change the Weather History Date:

Friday, September 20, 2013

  Actual Average Record
Temperature  
Mean Temperature 69 °F -  
Max Temperature 84 °F 71 °F 93 °F (1955)
Min Temperature 54 °F 49 °F 32 °F (1993)
Cooling Degree Days 4    
Growing Degree Days 19 (Base 50)    
Moisture  
Dew Point 57 °F    
Average Humidity 70    
Maximum Humidity 93    
Minimum Humidity 43    
Precipitation  
Precipitation 0.00 in - - ()
Sea Level Pressure  
Sea Level Pressure 29.97 in    
Wind  
Wind Speed 9 mph (SE)    
Max Wind Speed 12 mph    
Max Gust Speed 22 mph    
Visibility 10 miles    
Events      
Averages and records for this station are not official NWS values.
T = Trace of Precipitation, MM = Missing Value Source: NWS Daily Summary

Daily Weather History Graph

Daily Weather History Graph

Search for Another Location

Airport or City:

Trip Planner

Search our weather history database for the weather conditions in past years. The results will help you decide how hot, cold, wet, or windy it might be!

Date:

Astronomy

Sep. 20, 2013 Rise Set
Actual Time 6:56 AM EDT 7:11 PM EDT
Civil Twilight 6:28 AM EDT 7:39 PM EDT
Nautical Twilight 5:55 AM EDT 8:12 PM EDT
Astronomical Twilight 5:21 AM EDT 8:46 PM EDT
Moon 7:40 PM EDT (9/20) 8:11 AM EDT (9/20)
Length of Visible Light 13h 11m
Length of Day
12h 15m
Full, 98% of the Moon is Illuminated
Sep 20
Full
Sep 26
Last Quarter
Oct 4
New
Oct 11
First Quarter
Oct 18
Full

Hourly Weather History & Observations

Time (EDT) Temp. Heat Index Dew Point Humidity Pressure Visibility Wind Dir Wind Speed Gust Speed Precip Events Conditions
12:54 AM 57.0 °F - 54.0 °F 89% 30.08 in 10.0 mi SE 8.1 mph - N/A   Clear
1:54 AM 55.9 °F - 53.1 °F 90% 30.08 in 10.0 mi SE 8.1 mph - N/A   Clear
2:54 AM 55.0 °F - 53.1 °F 93% 30.08 in 10.0 mi ESE 10.4 mph - N/A   Clear
3:54 AM 55.0 °F - 52.0 °F 89% 30.08 in 10.0 mi SE 10.4 mph - N/A   Clear
4:54 AM 54.0 °F - 52.0 °F 93% 30.06 in 9.0 mi East 9.2 mph - N/A   Clear
5:54 AM 54.0 °F - 52.0 °F 93% 30.06 in 9.0 mi ESE 8.1 mph - N/A   Clear
6:54 AM 54.0 °F - 52.0 °F 93% 30.06 in 7.0 mi SSE 9.2 mph - N/A   Clear
7:54 AM 55.0 °F - 52.0 °F 89% 30.07 in 7.0 mi SE 5.8 mph - N/A   Clear
8:54 AM 59.0 °F - 54.0 °F 83% 30.06 in 10.0 mi SSE 6.9 mph - N/A   Clear
9:54 AM 66.0 °F - 57.9 °F 75% 30.04 in 10.0 mi SSE 6.9 mph - N/A   Clear
10:54 AM 73.0 °F - 60.1 °F 64% 30.02 in 10.0 mi SSE 9.2 mph - N/A   Clear
11:54 AM 77.0 °F - 61.0 °F 58% 29.99 in 10.0 mi SSE 9.2 mph 16.1 mph N/A   Clear
12:54 PM 80.1 °F 81.2 °F 62.1 °F 54% 29.97 in 10.0 mi SSE 10.4 mph 16.1 mph N/A   Clear
1:54 PM 82.0 °F 82.7 °F 61.0 °F 49% 29.94 in 10.0 mi SSE 10.4 mph 18.4 mph N/A   Clear
2:54 PM 82.9 °F 83.2 °F 60.1 °F 46% 29.91 in 10.0 mi South 9.2 mph - N/A   Clear
3:54 PM 84.0 °F 83.8 °F 59.0 °F 43% 29.88 in 10.0 mi SSE 10.4 mph 21.9 mph N/A   Clear
4:54 PM 82.9 °F 82.8 °F 59.0 °F 44% 29.88 in 10.0 mi South 11.5 mph - N/A   Clear
5:54 PM 81.0 °F 81.6 °F 60.1 °F 49% 29.88 in 10.0 mi South 5.8 mph - N/A   Clear
6:54 PM 75.9 °F - 62.1 °F 62% 29.87 in 10.0 mi SE 6.9 mph - N/A   Clear
7:54 PM 73.0 °F - 60.1 °F 64% 29.87 in 10.0 mi ESE 6.9 mph - N/A   Scattered Clouds
8:54 PM 72.0 °F - 59.0 °F 64% 29.88 in 10.0 mi ESE 6.9 mph - N/A   Clear
9:54 PM 71.1 °F - 59.0 °F 66% 29.88 in 10.0 mi SE 8.1 mph - N/A   Clear
10:54 PM 71.1 °F - 57.9 °F 63% 29.86 in 10.0 mi SE 10.4 mph - N/A   Clear
11:54 PM 70.0 °F - 57.9 °F 65% 29.85 in 10.0 mi SSE 9.2 mph - N/A   Partly Cloudy